• In Portugal
  • List of Countries
  • For 7 days
  • Water Temperature
  • Satellite Maps
  • Weather Map
  • Weather Widgets
  • user-avatar
    Login

    Hourly Weather Taungdżi

    Today, 23 October, Monday

    Time Temperature Precipitation Wind Pressure Humidity
    00:00 +19°C° 0 mm 1 mps 648 mmHg 92%
    01:00 +19°C° 0 mm 1 mps 648 mmHg 92%
    02:00 +19°C° 0 mm 1 mps 648 mmHg 92%
    03:00 +19°C° 0 mm 1 mps 648 mmHg 92%
    04:00 +19°C° 0 mm 1 mps 648 mmHg 93%
    05:00 +18°C° 0 mm 1 mps 648 mmHg 93%
    06:00 +18°C° 0 mm 1 mps 648 mmHg 94%
    07:00 +20°C° 0 mm 1 mps 649 mmHg 87%
    08:00 +22°C° 0 mm 1 mps 650 mmHg 79%
    09:00 +24°C° 0 mm 1 mps 651 mmHg 72%
    10:00 +25°C° 0.4 mm 1 mps 651 mmHg 72%
    11:00 +25°C° 0.4 mm 2 mps 650 mmHg 71%
    12:00 +26°C° 0.4 mm 2 mps 650 mmHg 70%
    13:00 +26°C° 0.9 mm 2 mps 649 mmHg 74%
    14:00 +25°C° 0.9 mm 1 mps 649 mmHg 79%
    15:00 +25°C° 0.9 mm 1 mps 648 mmHg 83%
    16:00 +23°C° 0.4 mm 1 mps 648 mmHg 86%
    17:00 +22°C° 0.4 mm 1 mps 648 mmHg 90%
    18:00 +18°C° 0.4 mm 0 mps 648 mmHg 94%
    19:00 +18°C° 0.1 mm 0 mps 648 mmHg 95%
    20:00 +18°C° 0.1 mm 0 mps 649 mmHg 95%
    21:00 +19°C° 0.1 mm 1 mps 649 mmHg 96%
    22:00 +19°C° 0.1 mm 1 mps 649 mmHg 96%
    23:00 +19°C° 0.1 mm 1 mps 649 mmHg 96%

    Tomorrow, 24 October, Tuesday

    Time Temperature Precipitation Wind Pressure Humidity
    00:00 +19°C° 0.1 mm 1 mps 649 mmHg 97%
    01:00 +19°C° 0.1 mm 1 mps 649 mmHg 97%
    02:00 +19°C° 0.1 mm 1 mps 649 mmHg 97%
    03:00 +18°C° 0.1 mm 1 mps 649 mmHg 97%
    04:00 +18°C° 0.2 mm 1 mps 649 mmHg 97%
    05:00 +18°C° 0.2 mm 1 mps 649 mmHg 97%
    06:00 +18°C° 0.2 mm 1 mps 650 mmHg 97%
    07:00 +20°C° 0.3 mm 1 mps 651 mmHg 90%
    08:00 +22°C° 0.3 mm 1 mps 652 mmHg 83%
    09:00 +24°C° 0.3 mm 1 mps 652 mmHg 76%
    10:00 +25°C° 0.5 mm 2 mps 652 mmHg 75%
    11:00 +25°C° 0.5 mm 2 mps 652 mmHg 74%
    12:00 +26°C° 0.5 mm 2 mps 651 mmHg 72%
    13:00 +25°C° 0.7 mm 2 mps 651 mmHg 75%
    14:00 +25°C° 0.7 mm 2 mps 650 mmHg 77%
    15:00 +25°C° 0.7 mm 1 mps 650 mmHg 80%
    16:00 +23°C° 0.9 mm 1 mps 650 mmHg 84%
    17:00 +22°C° 0.9 mm 1 mps 650 mmHg 89%
    18:00 +20°C° 0.9 mm 1 mps 650 mmHg 93%
    19:00 +20°C° 0.4 mm 1 mps 650 mmHg 94%
    20:00 +20°C° 0.4 mm 1 mps 651 mmHg 94%
    21:00 +19°C° 0.4 mm 1 mps 651 mmHg 95%
    22:00 +19°C° 0.1 mm 1 mps 651 mmHg 95%
    23:00 +19°C° 0.1 mm 1 mps 651 mmHg 95%

    Day after tomorrow, 25 October, Wednesday

    Time Temperature Precipitation Wind Pressure Humidity
    00:00 +19°C° 0.1 mm 1 mps 650 mmHg 95%
    01:00 +19°C° 0.1 mm 1 mps 650 mmHg 95%
    02:00 +19°C° 0.1 mm 1 mps 650 mmHg 95%
    03:00 +19°C° 0.1 mm 1 mps 650 mmHg 95%
    04:00 +19°C° 0 mm 1 mps 650 mmHg 95%
    05:00 +19°C° 0 mm 1 mps 651 mmHg 95%
    06:00 +17°C° 0 mm 0 mps 651 mmHg 95%
    07:00 +21°C° 0.2 mm 1 mps 652 mmHg 89%
    08:00 +22°C° 0.2 mm 1 mps 653 mmHg 83%
    09:00 +24°C° 0.2 mm 1 mps 654 mmHg 77%
    10:00 +24°C° 0.7 mm 1 mps 653 mmHg 78%
    11:00 +25°C° 0.7 mm 1 mps 653 mmHg 79%
    12:00 +25°C° 0.7 mm 1 mps 652 mmHg 81%
    13:00 +25°C° 1.1 mm 1 mps 651 mmHg 82%
    14:00 +24°C° 1.1 mm 1 mps 651 mmHg 83%
    15:00 +24°C° 1.1 mm 1 mps 650 mmHg 84%
    16:00 +23°C° 0.9 mm 1 mps 650 mmHg 87%
    17:00 +19°C° 0.9 mm 0 mps 650 mmHg 91%
    18:00 +18°C° 0.9 mm 0 mps 650 mmHg 94%
    19:00 +18°C° 0.6 mm 0 mps 650 mmHg 94%
    20:00 +17°C° 0.6 mm 0 mps 651 mmHg 95%
    21:00 +17°C° 0.6 mm 0 mps 651 mmHg 95%
    22:00 +17°C° 0.3 mm 0 mps 651 mmHg 95%
    23:00 +17°C° 0.3 mm 0 mps 650 mmHg 95%

    26 October, Thursday

    Time Temperature Precipitation Wind Pressure Humidity
    00:00 +17°C° 0.3 mm 0 mps 650 mmHg 95%
    01:00 +16°C° 0.3 mm 0 mps 650 mmHg 95%
    02:00 +16°C° 0.3 mm 0 mps 650 mmHg 95%
    03:00 +16°C° 0.3 mm 0 mps 650 mmHg 95%
    04:00 +16°C° 0.1 mm 0 mps 650 mmHg 95%
    05:00 +16°C° 0.1 mm 0 mps 650 mmHg 95%
    06:00 +16°C° 0.1 mm 0 mps 651 mmHg 95%
    07:00 +18°C° 0.3 mm 0 mps 652 mmHg 89%
    08:00 +20°C° 0.3 mm 0 mps 653 mmHg 84%
    09:00 +22°C° 0.3 mm 0 mps 653 mmHg 78%
    10:00 +25°C° 0.9 mm 1 mps 653 mmHg 76%
    11:00 +26°C° 0.9 mm 1 mps 652 mmHg 74%
    12:00 +26°C° 0.9 mm 1 mps 652 mmHg 72%
    13:00 +26°C° 1.3 mm 1 mps 651 mmHg 74%
    14:00 +25°C° 1.3 mm 1 mps 651 mmHg 75%
    15:00 +25°C° 1.3 mm 1 mps 650 mmHg 77%
    16:00 +23°C° 1.1 mm 1 mps 650 mmHg 82%
    17:00 +19°C° 1.1 mm 0 mps 649 mmHg 86%
    18:00 +18°C° 1.1 mm 0 mps 649 mmHg 91%
    19:00 +17°C° 0.2 mm 0 mps 650 mmHg 92%
    20:00 +17°C° 0.2 mm 0 mps 650 mmHg 93%
    21:00 +17°C° 0.2 mm 0 mps 650 mmHg 94%
    22:00 +16°C° 0 mm 0 mps 650 mmHg 94%
    23:00 +16°C° 0 mm 0 mps 650 mmHg 95%

    27 October, Friday

    Time Temperature Precipitation Wind Pressure Humidity
    00:00 +16°C° 0 mm 0 mps 649 mmHg 95%
    01:00 +16°C° 0 mm 0 mps 649 mmHg 95%
    02:00 +16°C° 0 mm 0 mps 649 mmHg 95%
    03:00 +16°C° 0 mm 0 mps 649 mmHg 96%
    04:00 +16°C° 0 mm 0 mps 649 mmHg 96%
    05:00 +16°C° 0 mm 0 mps 649 mmHg 95%
    06:00 +16°C° 0 mm 0 mps 650 mmHg 95%
    07:00 +18°C° 0.1 mm 0 mps 651 mmHg 88%
    08:00 +21°C° 0.1 mm 0 mps 652 mmHg 81%
    09:00 +23°C° 0.1 mm 0 mps 653 mmHg 74%
    10:00 +24°C° 0.4 mm 0 mps 652 mmHg 71%
    11:00 +25°C° 0.4 mm 0 mps 652 mmHg 68%
    12:00 +27°C° 0.4 mm 1 mps 651 mmHg 65%
    13:00 +27°C° 0.6 mm 1 mps 650 mmHg 67%
    14:00 +26°C° 0.6 mm 1 mps 650 mmHg 69%
    15:00 +26°C° 0.6 mm 1 mps 649 mmHg 71%
    16:00 +24°C° 0.4 mm 1 mps 649 mmHg 77%
    17:00 +20°C° 0.4 mm 0 mps 649 mmHg 84%
    18:00 +18°C° 0.4 mm 0 mps 648 mmHg 91%
    19:00 +18°C° 0 mm 0 mps 649 mmHg 92%
    20:00 +17°C° 0 mm 0 mps 649 mmHg 93%
    21:00 +17°C° 0 mm 0 mps 649 mmHg 94%
    22:00 +17°C° 0 mm 0 mps 649 mmHg 94%
    23:00 +16°C° 0 mm 0 mps 649 mmHg 95%

    28 October, Saturday

    Time Temperature Precipitation Wind Pressure Humidity
    00:00 +16°C° 0 mm 0 mps 649 mmHg 95%
    01:00 +16°C° 0 mm 0 mps 649 mmHg 95%
    02:00 +16°C° 0 mm 0 mps 649 mmHg 95%
    03:00 +16°C° 0 mm 0 mps 648 mmHg 95%
    04:00 +16°C° 0 mm 0 mps 649 mmHg 95%
    05:00 +16°C° 0 mm 0 mps 649 mmHg 95%
    06:00 +16°C° 0 mm 0 mps 650 mmHg 95%
    07:00 +18°C° 0.2 mm 0 mps 651 mmHg 88%
    08:00 +21°C° 0.2 mm 0 mps 652 mmHg 82%
    09:00 +25°C° 0.2 mm 1 mps 653 mmHg 75%
    10:00 +26°C° 0.6 mm 1 mps 652 mmHg 72%
    11:00 +27°C° 0.6 mm 1 mps 652 mmHg 70%
    12:00 +27°C° 0.6 mm 1 mps 651 mmHg 67%
    13:00 +27°C° 1.2 mm 1 mps 651 mmHg 70%
    14:00 +26°C° 1.2 mm 1 mps 650 mmHg 73%
    15:00 +25°C° 1.2 mm 1 mps 650 mmHg 77%
    16:00 +24°C° 1.6 mm 1 mps 650 mmHg 81%
    17:00 +22°C° 1.6 mm 1 mps 650 mmHg 86%
    18:00 +19°C° 1.6 mm 0 mps 649 mmHg 90%
    19:00 +19°C° 0.9 mm 0 mps 650 mmHg 91%
    20:00 +20°C° 0.9 mm 1 mps 650 mmHg 93%
    21:00 +20°C° 0.9 mm 1 mps 650 mmHg 94%
    22:00 +18°C° 0.9 mm 0 mps 650 mmHg 94%
    23:00 +18°C° 0.9 mm 0 mps 650 mmHg 94%
    Show more